Location: Grandview
(34.8900°N, 117.1058°W)
Time: 14:18:56
(UTC-07:00)

Vanguard 1 - All Passes

Search period start: 21 April 2018 00:00
Search period end: 01 May 2018 00:00
Orbit: 650 x 3833 km, 34.2° (Epoch: 20 April)

Date Brightness Start Highest point End Pass type
(mag) Time Alt. Az. Time Alt. Az. Time Alt. Az.
21 Apr - 01:55:02 10° W 02:00:11 86° S 02:08:49 10° E visible
21 Apr - 04:14:19 10° W 04:21:17 61° SSW 04:34:17 10° ESE visible
21 Apr - 06:35:00 10° W 06:43:50 31° SSW 06:57:56 10° SSE daylight
21 Apr - 21:38:47 10° S 21:41:31 15° SSE 21:44:07 10° ESE visible
21 Apr - 23:56:37 10° WSW 00:00:58 63° SSE 00:06:38 10° E night (unlit)
22 Apr - 02:15:55 10° W 02:21:12 83° S 02:30:17 10° E visible
22 Apr - 04:35:17 10° W 04:42:25 51° SSW 04:55:23 10° SE visible
22 Apr - 06:56:56 10° WSW 07:05:12 23° SSW 07:17:20 10° SSE daylight
22 Apr - 21:58:32 10° SSW 22:02:18 24° SSE 22:05:54 10° E visible
23 Apr - 00:17:26 10° WSW 00:21:52 76° S 00:27:50 10° E night (unlit)
23 Apr - 02:36:46 10° W 02:42:13 75° S 02:51:42 10° ESE visible
23 Apr - 04:56:23 10° W 05:03:35 41° SSW 05:16:09 10° SE visible
23 Apr - 07:19:45 10° WSW 07:26:36 17° SSW 07:35:41 10° S daylight
23 Apr - 22:18:52 10° SW 22:23:06 35° SSE 22:27:15 10° E visible
24 Apr - 00:38:19 10° W 00:42:49 84° S 00:49:06 10° E visible
24 Apr - 02:57:39 10° W 03:03:14 65° SSW 03:13:02 10° ESE visible
24 Apr - 05:17:41 10° W 05:24:48 32° SSW 05:36:31 10° SSE visible
24 Apr - 07:45:35 10° SW 07:48:07 11° SSW 07:50:52 10° SSW daylight
24 Apr - 20:21:52 10° S 20:24:07 12° SSE 20:26:08 10° SE visible
24 Apr - 22:39:30 10° WSW 22:43:55 49° SSE 22:48:24 10° E visible
25 Apr - 00:59:13 10° W 01:03:46 85° S 01:10:22 10° E visible
25 Apr - 03:18:35 10° W 03:24:16 53° SSW 03:34:11 10° SE visible
25 Apr - 05:39:19 10° WSW 05:46:04 24° SSW 05:56:19 10° SSE visible
25 Apr - 20:41:03 10° SSW 20:45:03 19° SSE 20:48:22 10° ESE visible
25 Apr - 23:00:19 10° WSW 23:04:48 65° SSE 23:09:30 10° E visible
26 Apr - 01:20:07 10° W 01:24:45 80° S 01:31:40 10° ESE visible
26 Apr - 03:39:35 10° W 03:45:20 42° SSW 03:55:05 10° SE visible
26 Apr - 06:01:37 10° WSW 06:07:24 17° SSW 06:15:16 10° S daylight
26 Apr - 21:01:09 10° SW 21:05:58 28° SSE 21:09:49 10° E visible
26 Apr - 23:21:14 10° WSW 23:25:42 77° S 23:30:35 10° E night (unlit)
27 Apr - 01:41:01 10° W 01:45:42 70° SSW 01:52:54 10° ESE visible
27 Apr - 04:00:45 10° W 04:06:26 32° SSW 04:15:39 10° SE visible
27 Apr - 06:25:55 10° SW 06:28:48 11° SSW 06:32:05 10° SSW daylight
27 Apr - 19:03:58 10° S 19:06:26 12° SSE 19:08:35 10° SE daylight
27 Apr - 21:21:41 10° SW 21:26:51 40° SSE 21:30:59 10° E visible
27 Apr - 23:42:12 10° W 23:46:37 84° S 23:51:41 10° E night (unlit)
28 Apr - 02:01:55 10° W 02:06:40 57° SSW 02:14:02 10° ESE visible
28 Apr - 04:22:12 10° WSW 04:27:36 24° SSW 04:35:45 10° SSE visible
28 Apr - 19:22:40 10° SSW 19:27:31 18° SSE 19:31:13 10° ESE daylight
28 Apr - 21:42:29 10° WSW 21:47:44 54° SSE 21:52:02 10° E visible
29 Apr - 00:03:10 10° W 00:07:34 83° S 00:12:49 10° E night (unlit)
29 Apr - 02:22:53 10° W 02:27:38 44° SSW 02:34:59 10° SE visible
29 Apr - 04:44:11 10° WSW 04:48:49 17° SSW 04:55:06 10° S visible
29 Apr - 19:42:33 10° SSW 19:48:34 26° SSE 19:52:49 10° E daylight
29 Apr - 22:03:27 10° WSW 22:08:38 68° S 22:13:01 10° E visible
30 Apr - 00:24:07 10° W 00:28:30 76° S 00:33:55 10° ESE night (unlit)
30 Apr - 02:43:58 10° W 02:48:38 33° SSW 02:55:40 10° SE visible
30 Apr - 05:07:51 10° SW 05:10:06 11° SSW 05:12:38 10° SSW visible
30 Apr - 17:45:02 10° S 17:48:24 12° SSE 17:51:15 10° SE daylight
30 Apr - 20:02:57 10° SW 20:09:34 36° SSE 20:14:03 10° E visible
30 Apr - 22:24:30 10° W 22:29:34 80° S 22:33:59 10° E visible
